����,���ϕ���(m/s),���ϕ���,�ő�u�ԕ���(m/s),�ő啗��������,�C��(��),���x(%),10���Ԉړ��ώZ�J��(mm),1���Ԉړ��ώZ�J��(mm),���J��(mm),�݌v�J��(mm),����(���ώZ)(MJ/m2),����(���ώZ)(min),���n�C��(hPa),�C�ʋC��(hPa)
2023-07-31T00:00:00+09:00,1.4,��쐼,2.9,��,26.8,82.3,0,0,0,0,25.65,636,1004,1017.3
2023-07-31T00:01:00+09:00,1.5,��쐼,2.9,��,27,82.8,0,0,0,0,0,0,1004,1017.3
2023-07-31T00:02:00+09:00,1.6,��쐼,2.9,��,27,83,0,0,0,0,0,0,1004,1017.3
2023-07-31T00:03:00+09:00,1.6,��쐼,2.9,��,27.1,83,0,0,0,0,0,0,1004,1017.3
2023-07-31T00:04:00+09:00,1.6,��쐼,2.9,��,27,82.8,0,0,0,0,0,0,1004,1017.3
2023-07-31T00:05:00+09:00,1.6,��쐼,2.9,��,27.1,83,0,0,0,0,0,0,1004,1017.3
2023-07-31T00:06:00+09:00,1.6,��쐼,2.9,��,27.1,82.9,0,0,0,0,0,0,1003.9,1017.2
2023-07-31T00:07:00+09:00,1.6,��쐼,2.9,��,26.9,82.6,0,0,0,0,0,0,1003.9,1017.2
2023-07-31T00:08:00+09:00,1.5,��쐼,2.9,��,27,83,0,0,0,0,0,0,1003.9,1017.2
2023-07-31T00:09:00+09:00,1.4,��쐼,2.9,��,27,82.9,0,0,0,0,0,0,1003.9,1017.2
2023-07-31T00:10:00+09:00,1.3,��쐼,2.3,��,26.9,83.1,0,0,0,0,0,0,1003.9,1017.2
2023-07-31T00:11:00+09:00,1.3,��쐼,2.3,��,26.9,83.1,0,0,0,0,0,0,1003.9,1017.2
2023-07-31T00:12:00+09:00,1.2,��쐼,2.1,��,26.8,83.3,0,0,0,0,0,0,1003.9,1017.2
2023-07-31T00:13:00+09:00,1.3,��쐼,2.1,��,26.8,83.4,0,0,0,0,0,0,1003.9,1017.2
2023-07-31T00:14:00+09:00,1.3,��쐼,2.1,��,26.7,83.6,0,0,0,0,0,0,1003.9,1017.2
2023-07-31T00:15:00+09:00,1.3,��쐼,2.1,��,26.7,83.9,0,0,0,0,0,0,1003.8,1017.1
2023-07-31T00:16:00+09:00,1.2,��쐼,2.1,��,26.6,84.1,0,0,0,0,0,0,1003.8,1017.1
2023-07-31T00:17:00+09:00,1.2,��쐼,2.1,��,26.7,84.6,0,0,0,0,0,0,1003.8,1017.1
2023-07-31T00:18:00+09:00,1.1,��쐼,2.1,��,26.8,84.7,0,0,0,0,0,0,1003.8,1017.1
2023-07-31T00:19:00+09:00,1.1,��쐼,2.1,��,26.8,84.6,0,0,0,0,0,0,1003.8,1017.1
2023-07-31T00:20:00+09:00,1.1,��쐼,2.1,��,26.8,84.7,0,0,0,0,0,0,1003.8,1017.1
2023-07-31T00:21:00+09:00,1.1,��쐼,2.1,��쐼,26.8,84.5,0,0,0,0,0,0,1003.8,1017.1
2023-07-31T00:22:00+09:00,1,��쐼,2.1,��쐼,27,84.6,0,0,0,0,0,0,1003.8,1017.1
2023-07-31T00:23:00+09:00,0.9,��쐼,2.1,��쐼,26.9,84.3,0,0,0,0,0,0,1003.8,1017.1
2023-07-31T00:24:00+09:00,0.9,��쐼,2.1,��쐼,27,84.1,0,0,0,0,0,0,1003.8,1017.1
2023-07-31T00:25:00+09:00,0.8,��쐼,2,��쐼,27,83.8,0,0,0,0,0,0,1003.8,1017.1
2023-07-31T00:26:00+09:00,0.7,��쐼,2,��쐼,26.9,83.4,0,0,0,0,0,0,1003.8,1017.1
2023-07-31T00:27:00+09:00,0.7,��쐼,1.8,��쐼,26.9,83.6,0,0,0,0,0,0,1003.8,1017.1
2023-07-31T00:28:00+09:00,0.7,��쐼,1.8,��쐼,26.8,83.2,0,0,0,0,0,0,1003.7,1017
2023-07-31T00:29:00+09:00,0.6,�쐼,1.7,��,26.9,83.6,0,0,0,0,0,0,1003.7,1017
2023-07-31T00:30:00+09:00,0.6,�쐼,1.5,��쐼,26.2,82.3,0,0,0,0,0,0,1003.7,1017
2023-07-31T00:31:00+09:00,0.6,�쐼,1.5,��쐼,26.3,83.6,0,0,0,0,0,0,1003.8,1017.1
2023-07-31T00:32:00+09:00,0.7,�쐼,1.6,���쐼,25.9,84.2,0,0,0,0,0,0,1003.7,1017.1
2023-07-31T00:33:00+09:00,0.8,�쐼,1.9,��,25.7,84.8,0,0,0,0,0,0,1003.7,1017.1
2023-07-31T00:34:00+09:00,0.9,�쐼,2,���쐼,25.6,85.7,0,0,0,0,0,0,1003.7,1017.1
2023-07-31T00:35:00+09:00,0.9,���쐼,2,���쐼,25.6,86.6,0,0,0,0,0,0,1003.7,1017.1
2023-07-31T00:36:00+09:00,0.9,���쐼,2,���쐼,25.4,87.5,0,0,0,0,0,0,1003.7,1017.1
2023-07-31T00:37:00+09:00,0.9,���쐼,2,���쐼,25.7,88.5,0,0,0,0,0,0,1003.7,1017.1
2023-07-31T00:38:00+09:00,0.9,���쐼,2,���쐼,25.7,88.9,0,0,0,0,0,0,1003.7,1017.1
2023-07-31T00:39:00+09:00,0.9,���쐼,2,���쐼,26.1,89.2,0,0,0,0,0,0,1003.7,1017.1
2023-07-31T00:40:00+09:00,1,���쐼,2,���쐼,26.5,89.7,0,0,0,0,0,0,1003.7,1017
2023-07-31T00:41:00+09:00,1,���쐼,2,���쐼,26.5,88.7,0,0,0,0,0,0,1003.7,1017
2023-07-31T00:42:00+09:00,0.9,��,2,���쐼,26.6,87.7,0,0,0,0,0,0,1003.7,1017
2023-07-31T00:43:00+09:00,0.8,��,2,���쐼,26.5,86.7,0,0,0,0,0,0,1003.7,1017
2023-07-31T00:44:00+09:00,0.7,��,1.6,���k��,26.1,85.8,0,0,0,0,0,0,1003.7,1017.1
2023-07-31T00:45:00+09:00,0.7,��,1.6,���k��,25.9,85.2,0,0,0,0,0,0,1003.7,1017.1
2023-07-31T00:46:00+09:00,0.7,��,1.6,���k��,26,86.8,0,0,0,0,0,0,1003.7,1017.1
2023-07-31T00:47:00+09:00,0.8,��,1.6,���k��,26,87.1,0,0,0,0,0,0,1003.7,1017.1
2023-07-31T00:48:00+09:00,0.8,��,1.6,���k��,25.8,87.3,0,0,0,0,0,0,1003.7,1017.1
2023-07-31T00:49:00+09:00,0.8,��,1.6,���k��,25.8,87.2,0,0,0,0,0,0,1003.7,1017.1
2023-07-31T00:50:00+09:00,0.8,��,1.6,���k��,26.2,87.9,0,0,0,0,0,0,1003.7,1017
2023-07-31T00:51:00+09:00,0.7,��,1.6,���k��,26.2,88,0,0,0,0,0,0,1003.7,1017
2023-07-31T00:52:00+09:00,0.7,��,1.6,���k��,26.3,87.5,0,0,0,0,0,0,1003.6,1016.9
2023-07-31T00:53:00+09:00,0.7,��,1.6,���k��,26.3,87.2,0,0,0,0,0,0,1003.6,1016.9
2023-07-31T00:54:00+09:00,0.7,���쐼,1.6,���k��,26.4,87,0,0,0,0,0,0,1003.6,1016.9
2023-07-31T00:55:00+09:00,0.7,���쐼,1.6,���k��,26,86.3,0,0,0,0,0,0,1003.6,1017
2023-07-31T00:56:00+09:00,0.7,���쐼,1.6,���k��,26,86.3,0,0,0,0,0,0,1003.6,1017
2023-07-31T00:57:00+09:00,0.6,���쐼,1.6,���k��,26.3,87.1,0,0,0,0,0,0,1003.6,1016.9
2023-07-31T00:58:00+09:00,0.6,���쐼,1.6,���k��,26.4,87.2,0,0,0,0,0,0,1003.6,1016.9
2023-07-31T00:59:00+09:00,0.6,���쐼,1.4,��쐼,26.4,86.8,0,0,0,0,0,0,1003.6,1016.9
2023-07-31T01:00:00+09:00,0.5,�쐼,1.4,��쐼,26.2,86.3,0,0,0,0,0,0,1003.5,1016.8
2023-07-31T01:01:00+09:00,0.5,�쐼,1.4,��쐼,26.4,86.5,0,0,0,0,0,0,1003.5,1016.8
2023-07-31T01:02:00+09:00,0.5,��쐼,1.4,��쐼,26.3,86.2,0,0,0,0,0,0,1003.5,1016.8
2023-07-31T01:03:00+09:00,0.4,��쐼,1.4,��쐼,26.4,86.2,0,0,0,0,0,0,1003.5,1016.8
2023-07-31T01:04:00+09:00,0.4,�쐼,1.4,��쐼,26.2,86.1,0,0,0,0,0,0,1003.5,1016.8
2023-07-31T01:05:00+09:00,0.4,�쐼,1.4,��쐼,26.1,85.9,0,0,0,0,0,0,1003.6,1017
2023-07-31T01:06:00+09:00,0.3,�쐼,1.1,�쐼,25.8,85.7,0,0,0,0,0,0,1003.6,1017
2023-07-31T01:07:00+09:00,0.3,�쐼,1.1,�쐼,26.1,87,0,0,0,0,0,0,1003.6,1017
2023-07-31T01:08:00+09:00,0.3,�쐼,1,��,26.1,86.8,0,0,0,0,0,0,1003.6,1017
2023-07-31T01:09:00+09:00,0.2,�É�,1,��,26.2,87.4,0,0,0,0,0,0,1003.6,1016.9
2023-07-31T01:10:00+09:00,0.3,�쐼,1,��,26.1,86.9,0,0,0,0,0,0,1003.6,1017
2023-07-31T01:11:00+09:00,0.3,���쐼,1.1,��,26.3,87.2,0,0,0,0,0,0,1003.6,1016.9
2023-07-31T01:12:00+09:00,0.3,���쐼,1.2,��,26.1,86.7,0,0,0,0,0,0,1003.6,1017
2023-07-31T01:13:00+09:00,0.4,��,1.5,��,25.6,85.7,0,0,0,0,0,0,1003.6,1017
2023-07-31T01:14:00+09:00,0.6,���쐼,2.6,��,25.4,86.2,0,0,0,0,0,0,1003.6,1017
2023-07-31T01:15:00+09:00,0.8,���쐼,3.1,��,25.2,87,0,0,0,0,0,0,1003.6,1017
2023-07-31T01:16:00+09:00,1,���쐼,3.1,��,25.1,87.8,0,0,0,0,0,0,1003.6,1017
2023-07-31T01:17:00+09:00,1.1,��,3.1,��,25.2,88.8,0,0,0,0,0,0,1003.6,1017
2023-07-31T01:18:00+09:00,1.3,��,3.1,��,25.1,89.5,0,0,0,0,0,0,1003.6,1017
2023-07-31T01:19:00+09:00,1.5,��,3.1,��,25.1,89.9,0,0,0,0,0,0,1003.6,1017
2023-07-31T01:20:00+09:00,1.6,��,3.1,��,25.1,90.2,0,0,0,0,0,0,1003.6,1017
2023-07-31T01:21:00+09:00,1.6,��,3.1,��,25.3,90.8,0,0,0,0,0,0,1003.6,1017
2023-07-31T01:22:00+09:00,1.6,��,3.1,��,25.7,91.6,0,0,0,0,0,0,1003.6,1017
2023-07-31T01:23:00+09:00,1.6,��,3.1,��,25.5,90.6,0,0,0,0,0,0,1003.6,1017
2023-07-31T01:24:00+09:00,1.4,���쐼,3.1,��,25.6,90.6,0,0,0,0,0,0,1003.6,1017
2023-07-31T01:25:00+09:00,1.3,���쐼,2.9,���쐼,25.8,90.2,0,0,0,0,0,0,1003.6,1017
2023-07-31T01:26:00+09:00,1.2,���쐼,2.9,���쐼,25.7,89.5,0,0,0,0,0,0,1003.6,1017
2023-07-31T01:27:00+09:00,1.1,���쐼,2.9,���쐼,25.7,88.8,0,0,0,0,0,0,1003.6,1017
2023-07-31T01:28:00+09:00,0.8,���쐼,2.5,��,26,89.6,0,0,0,0,0,0,1003.6,1017
2023-07-31T01:29:00+09:00,0.7,���쐼,2.1,��,25.9,89,0,0,0,0,0,0,1003.6,1017
2023-07-31T01:30:00+09:00,0.6,���쐼,1.6,��,25.6,88,0,0,0,0,0,0,1003.6,1017
2023-07-31T01:31:00+09:00,0.5,���쐼,1.6,��,25.6,87.9,0,0,0,0,0,0,1003.6,1017
2023-07-31T01:32:00+09:00,0.6,���쐼,1.8,��,25.5,88,0,0,0,0,0,0,1003.6,1017
2023-07-31T01:33:00+09:00,0.7,���쐼,1.8,��,25.5,88.2,0,0,0,0,0,0,1003.6,1017
2023-07-31T01:34:00+09:00,0.8,���쐼,2.1,��,25.4,88.3,0,0,0,0,0,0,1003.6,1017
2023-07-31T01:35:00+09:00,0.8,���쐼,2.1,��,25.4,88.6,0,0,0,0,0,0,1003.6,1017
2023-07-31T01:36:00+09:00,0.9,���쐼,2.1,��,25.3,88.6,0,0,0,0,0,0,1003.6,1017
2023-07-31T01:37:00+09:00,0.9,���쐼,2.1,��,25.4,89.1,0,0,0,0,0,0,1003.6,1017
2023-07-31T01:38:00+09:00,1,���쐼,2.1,��,25.4,89.3,0,0,0,0,0,0,1003.6,1017
2023-07-31T01:39:00+09:00,1.1,��,2.1,��,25.4,89.4,0,0,0,0,0,0,1003.6,1017
2023-07-31T01:40:00+09:00,1.1,���쐼,2.1,��,25.5,89.7,0,0,0,0,0,0,1003.5,1016.9
2023-07-31T01:41:00+09:00,1.2,���쐼,2.1,��,25.3,89.1,0,0,0,0,0,0,1003.5,1016.9
2023-07-31T01:42:00+09:00,1.1,���쐼,2.1,��,25.4,89.1,0,0,0,0,0,0,1003.5,1016.9
2023-07-31T01:43:00+09:00,1.1,���쐼,2.1,��,25.9,90.5,0,0,0,0,0,0,1003.5,1016.9
2023-07-31T01:44:00+09:00,0.9,���쐼,1.9,��,25.9,89.9,0,0,0,0,0,0,1003.5,1016.9
2023-07-31T01:45:00+09:00,0.9,���쐼,1.9,��,25.8,89.1,0,0,0,0,0,0,1003.5,1016.9
2023-07-31T01:46:00+09:00,0.8,���쐼,1.9,��,25.7,88.2,0,0,0,0,0,0,1003.4,1016.8
2023-07-31T01:47:00+09:00,0.8,���쐼,1.9,��,25.5,87.6,0,0,0,0,0,0,1003.4,1016.8
2023-07-31T01:48:00+09:00,0.8,���쐼,1.9,��,25.4,87.7,0,0,0,0,0,0,1003.4,1016.8
2023-07-31T01:49:00+09:00,0.7,���쐼,1.6,��,25.5,88.1,0,0,0,0,0,0,1003.4,1016.8
2023-07-31T01:50:00+09:00,0.7,���쐼,1.6,��,25.4,88.3,0,0,0,0,0,0,1003.4,1016.8
2023-07-31T01:51:00+09:00,0.7,���쐼,1.5,�쐼,25.4,88.2,0,0,0,0,0,0,1003.4,1016.8
2023-07-31T01:52:00+09:00,0.7,�쐼,1.5,�쐼,25.4,88.5,0,0,0,0,0,0,1003.4,1016.8
2023-07-31T01:53:00+09:00,0.8,�쐼,1.6,���쐼,25.6,89,0,0,0,0,0,0,1003.4,1016.8
2023-07-31T01:54:00+09:00,0.8,�쐼,1.6,���쐼,25.9,89.4,0,0,0,0,0,0,1003.4,1016.8
2023-07-31T01:55:00+09:00,0.9,�쐼,1.6,���쐼,25.9,88.8,0,0,0,0,0,0,1003.4,1016.8
2023-07-31T01:56:00+09:00,0.9,�쐼,1.6,���쐼,25.8,88.5,0,0,0,0,0,0,1003.4,1016.8
2023-07-31T01:57:00+09:00,0.9,�쐼,1.6,���쐼,25.8,87.8,0,0,0,0,0,0,1003.4,1016.8
2023-07-31T01:58:00+09:00,0.9,�쐼,1.6,���쐼,25.6,87.6,0,0,0,0,0,0,1003.4,1016.8
2023-07-31T01:59:00+09:00,0.9,�쐼,1.6,���쐼,25.9,88.1,0,0,0,0,0,0,1003.4,1016.8
2023-07-31T02:00:00+09:00,1,�쐼,1.6,���쐼,25.7,87.6,0,0,0,0,0,0,1003.4,1016.8
2023-07-31T02:01:00+09:00,0.9,�쐼,1.6,���쐼,25.4,87.2,0,0,0,0,0,0,1003.4,1016.8
2023-07-31T02:02:00+09:00,1,�쐼,1.7,�쐼,25.4,87.4,0,0,0,0,0,0,1003.4,1016.8
2023-07-31T02:03:00+09:00,1,�쐼,2,���쐼,25.4,88.1,0,0,0,0,0,0,1003.4,1016.8
2023-07-31T02:04:00+09:00,1.1,�쐼,2,���쐼,25.4,88.6,0,0,0,0,0,0,1003.4,1016.8
2023-07-31T02:05:00+09:00,1,�쐼,2,���쐼,25.5,88.9,0,0,0,0,0,0,1003.4,1016.8
2023-07-31T02:06:00+09:00,1.1,���쐼,2,���쐼,25.5,88.7,0,0,0,0,0,0,1003.4,1016.8
2023-07-31T02:07:00+09:00,1.1,���쐼,2,���쐼,25.3,88.8,0,0,0,0,0,0,1003.4,1016.8
2023-07-31T02:08:00+09:00,1.2,���쐼,2,���쐼,25.3,88.9,0,0,0,0,0,0,1003.5,1016.9
2023-07-31T02:09:00+09:00,1.1,���쐼,2,���쐼,25.1,89.3,0,0,0,0,0,0,1003.5,1016.9
2023-07-31T02:10:00+09:00,1.1,���쐼,2,���쐼,25.3,90,0,0,0,0,0,0,1003.5,1016.9
2023-07-31T02:11:00+09:00,1.1,���쐼,2,���쐼,25.4,90.7,0,0,0,0,0,0,1003.5,1016.9
2023-07-31T02:12:00+09:00,1.2,���쐼,2,���쐼,25.1,90.2,0,0,0,0,0,0,1003.5,1016.9
2023-07-31T02:13:00+09:00,1.1,���쐼,2,��,25,90.1,0,0,0,0,0,0,1003.5,1016.9
2023-07-31T02:14:00+09:00,1.1,���쐼,2,��,25.3,90.8,0,0,0,0,0,0,1003.5,1016.9
2023-07-31T02:15:00+09:00,1,���쐼,2,��,25.2,90.9,0,0,0,0,0,0,1003.4,1016.8
2023-07-31T02:16:00+09:00,0.9,���쐼,2,��,25.1,90.7,0,0,0,0,0,0,1003.4,1016.8
2023-07-31T02:17:00+09:00,0.8,���쐼,2,��,25.2,90.6,0,0,0,0,0,0,1003.4,1016.8
2023-07-31T02:18:00+09:00,0.8,���쐼,2,��,25.4,91,0,0,0,0,0,0,1003.4,1016.8
2023-07-31T02:19:00+09:00,0.8,���쐼,2,��,25.7,91,0,0,0,0,0,0,1003.4,1016.8
2023-07-31T02:20:00+09:00,0.8,���쐼,2,��,26,91.1,0,0,0,0,0,0,1003.4,1016.8
2023-07-31T02:21:00+09:00,0.7,���쐼,1.8,���쐼,26.1,90,0,0,0,0,0,0,1003.4,1016.8
2023-07-31T02:22:00+09:00,0.7,���쐼,1.5,���쐼,26.2,89,0,0,0,0,0,0,1003.3,1016.6
2023-07-31T02:23:00+09:00,0.6,���쐼,1.4,���k��,25.7,87.9,0,0,0,0,0,0,1003.3,1016.7
2023-07-31T02:24:00+09:00,0.5,���쐼,1.4,���k��,25.8,87.5,0,0,0,0,0,0,1003.3,1016.7
2023-07-31T02:25:00+09:00,0.5,���쐼,1.4,���k��,26,88.1,0,0,0,0,0,0,1003.3,1016.7
2023-07-31T02:26:00+09:00,0.5,���쐼,1.4,���k��,26,87.8,0,0,0,0,0,0,1003.3,1016.7
2023-07-31T02:27:00+09:00,0.4,���쐼,1.4,���k��,26,87.5,0,0,0,0,0,0,1003.3,1016.7
2023-07-31T02:28:00+09:00,0.4,���쐼,1.4,���k��,26,86.9,0,0,0,0,0,0,1003.3,1016.7
2023-07-31T02:29:00+09:00,0.4,���쐼,1.4,���k��,26,86.6,0,0,0,0,0,0,1003.3,1016.7
2023-07-31T02:30:00+09:00,0.4,���쐼,1.1,��쐼,26.2,86.6,0,0,0,0,0,0,1003.3,1016.6
2023-07-31T02:31:00+09:00,0.4,�쐼,1.3,�쐼,26.1,86.1,0,0,0,0,0,0,1003.3,1016.6
2023-07-31T02:32:00+09:00,0.5,�쐼,1.8,��쐼,26,85.5,0,0,0,0,0,0,1003.4,1016.8
2023-07-31T02:33:00+09:00,0.5,�쐼,1.8,��쐼,25.8,85,0,0,0,0,0,0,1003.3,1016.7
2023-07-31T02:34:00+09:00,0.6,�쐼,1.8,��쐼,25.3,85.2,0,0,0,0,0,0,1003.4,1016.8
2023-07-31T02:35:00+09:00,0.8,�쐼,1.8,��쐼,25.4,86.2,0,0,0,0,0,0,1003.4,1016.8
2023-07-31T02:36:00+09:00,0.8,�쐼,1.8,��쐼,25.5,87.9,0,0,0,0,0,0,1003.4,1016.8
2023-07-31T02:37:00+09:00,1,�쐼,1.8,��쐼,25.4,88,0,0,0,0,0,0,1003.4,1016.8
2023-07-31T02:38:00+09:00,1.1,�쐼,1.8,��쐼,25.3,88.1,0,0,0,0,0,0,1003.4,1016.8
2023-07-31T02:39:00+09:00,1.1,�쐼,1.8,��쐼,25.2,88.4,0,0,0,0,0,0,1003.4,1016.8
2023-07-31T02:40:00+09:00,1.1,�쐼,1.8,��쐼,25,88.6,0,0,0,0,0,0,1003.4,1016.8
2023-07-31T02:41:00+09:00,1.1,�쐼,1.8,��쐼,25.3,89.4,0,0,0,0,0,0,1003.4,1016.8
2023-07-31T02:42:00+09:00,1.1,�쐼,1.8,�쐼,25.4,90.6,0,0,0,0,0,0,1003.4,1016.8
2023-07-31T02:43:00+09:00,1.1,�쐼,1.8,�쐼,25,89.6,0,0,0,0,0,0,1003.4,1016.8
2023-07-31T02:44:00+09:00,1.1,�쐼,2.4,��,25,89.9,0,0,0,0,0,0,1003.4,1016.8
2023-07-31T02:45:00+09:00,1.1,���쐼,2.4,��,24.9,90.2,0,0,0,0,0,0,1003.4,1016.8
2023-07-31T02:46:00+09:00,1.1,���쐼,2.4,��,24.7,90.5,0,0,0,0,0,0,1003.4,1016.8
2023-07-31T02:47:00+09:00,1.1,���쐼,2.4,��,25,91.3,0,0,0,0,0,0,1003.4,1016.8
2023-07-31T02:48:00+09:00,1.1,���쐼,2.4,��,24.9,92.1,0,0,0,0,0,0,1003.4,1016.8
2023-07-31T02:49:00+09:00,1.2,���쐼,2.4,��,24.8,91.6,0,0,0,0,0,0,1003.5,1016.9
2023-07-31T02:50:00+09:00,1.2,���쐼,2.4,��,24.9,92.2,0,0,0,0,0,0,1003.5,1016.9
2023-07-31T02:51:00+09:00,1.2,���쐼,2.4,��,24.9,92.3,0,0,0,0,0,0,1003.5,1016.9
2023-07-31T02:52:00+09:00,1.2,���쐼,2.4,��,25,92.8,0,0,0,0,0,0,1003.5,1016.9
2023-07-31T02:53:00+09:00,1.2,���쐼,2.4,��,25,93,0,0,0,0,0,0,1003.5,1016.9
2023-07-31T02:54:00+09:00,1.1,���쐼,2.4,��,24.9,92.4,0,0,0,0,0,0,1003.5,1016.9
2023-07-31T02:55:00+09:00,1.1,�쐼,1.9,�쐼,25,92.8,0,0,0,0,0,0,1003.5,1016.9
2023-07-31T02:56:00+09:00,1.1,�쐼,1.9,�쐼,24.9,93,0,0,0,0,0,0,1003.5,1016.9
2023-07-31T02:57:00+09:00,1.1,�쐼,1.9,�쐼,24.9,92.9,0,0,0,0,0,0,1003.5,1016.9
2023-07-31T02:58:00+09:00,1.1,�쐼,1.9,�쐼,24.9,93.2,0,0,0,0,0,0,1003.5,1016.9
2023-07-31T02:59:00+09:00,1.2,�쐼,2,�쐼,24.8,93.1,0,0,0,0,0,0,1003.5,1016.9
2023-07-31T03:00:00+09:00,1.2,�쐼,2.3,�쐼,24.7,93.1,0,0,0,0,0,0,1003.5,1016.9
2023-07-31T03:01:00+09:00,1.3,�쐼,2.3,�쐼,24.8,93.5,0,0,0,0,0,0,1003.5,1016.9
2023-07-31T03:02:00+09:00,1.3,�쐼,2.3,�쐼,24.7,93.5,0,0,0,0,0,0,1003.5,1016.9
2023-07-31T03:03:00+09:00,1.4,�쐼,2.9,�쐼,24.8,93.6,0,0,0,0,0,0,1003.5,1016.9
2023-07-31T03:04:00+09:00,1.5,�쐼,2.9,�쐼,25,94.4,0,0,0,0,0,0,1003.5,1016.9
2023-07-31T03:05:00+09:00,1.6,�쐼,2.9,�쐼,24.8,94.1,0,0,0,0,0,0,1003.5,1016.9
2023-07-31T03:06:00+09:00,1.6,�쐼,2.9,�쐼,24.8,94,0,0,0,0,0,0,1003.5,1016.9
2023-07-31T03:07:00+09:00,1.6,�쐼,2.9,�쐼,25.1,94.1,0,0,0,0,0,0,1003.5,1016.9
2023-07-31T03:08:00+09:00,1.6,�쐼,2.9,�쐼,25.4,94.6,0,0,0,0,0,0,1003.5,1016.9
2023-07-31T03:09:00+09:00,1.5,�쐼,2.9,�쐼,25.4,94.2,0,0,0,0,0,0,1003.5,1016.9
2023-07-31T03:10:00+09:00,1.5,�쐼,2.9,�쐼,25,92.6,0,0,0,0,0,0,1003.5,1016.9
2023-07-31T03:11:00+09:00,1.5,�쐼,2.9,�쐼,25.1,92.2,0,0,0,0,0,0,1003.5,1016.9
2023-07-31T03:12:00+09:00,1.4,�쐼,2.9,�쐼,25.4,92.9,0,0,0,0,0,0,1003.5,1016.9
2023-07-31T03:13:00+09:00,1.3,�쐼,2.5,��쐼,25.1,92.4,0,0,0,0,0,0,1003.5,1016.9
2023-07-31T03:14:00+09:00,1.3,�쐼,2.5,��쐼,24.8,91.6,0,0,0,0,0,0,1003.5,1016.9
2023-07-31T03:15:00+09:00,1.3,�쐼,2.3,��쐼,25.1,92.4,0,0,0,0,0,0,1003.5,1016.9
2023-07-31T03:16:00+09:00,1.3,�쐼,2.5,�쐼,25.2,92.8,0,0,0,0,0,0,1003.5,1016.9
2023-07-31T03:17:00+09:00,1.3,�쐼,2.5,�쐼,25,92.3,0,0,0,0,0,0,1003.5,1016.9
2023-07-31T03:18:00+09:00,1.4,�쐼,2.5,�쐼,24.8,92.2,0,0,0,0,0,0,1003.5,1016.9
2023-07-31T03:19:00+09:00,1.4,�쐼,2.5,�쐼,25.1,92.4,0,0,0,0,0,0,1003.4,1016.8
2023-07-31T03:20:00+09:00,1.4,�쐼,2.5,�쐼,25.2,93.2,0,0,0,0,0,0,1003.4,1016.8
2023-07-31T03:21:00+09:00,1.4,��쐼,2.5,�쐼,25.2,92.8,0,0,0,0,0,0,1003.4,1016.8
2023-07-31T03:22:00+09:00,1.4,�쐼,2.5,�쐼,25,92.4,0,0,0,0,0,0,1003.4,1016.8
2023-07-31T03:23:00+09:00,1.4,�쐼,2.5,�쐼,24.8,91.9,0,0,0,0,0,0,1003.4,1016.8
2023-07-31T03:24:00+09:00,1.4,�쐼,2.5,�쐼,24.7,92.1,0,0,0,0,0,0,1003.5,1016.9
2023-07-31T03:25:00+09:00,1.3,�쐼,2.5,�쐼,25,93,0,0,0,0,0,0,1003.5,1016.9
2023-07-31T03:26:00+09:00,1.2,�쐼,2.4,��쐼,25.1,93.5,0,0,0,0,0,0,1003.5,1016.9
2023-07-31T03:27:00+09:00,1.1,�쐼,2.4,��쐼,25.2,93.6,0,0,0,0,0,0,1003.5,1016.9
2023-07-31T03:28:00+09:00,1,�쐼,2,��쐼,25.4,93.3,0,0,0,0,0,0,1003.5,1016.9
2023-07-31T03:29:00+09:00,1,�쐼,2,��쐼,25.1,92.4,0,0,0,0,0,0,1003.5,1016.9
2023-07-31T03:30:00+09:00,1,�쐼,2,��쐼,25.1,91.7,0,0,0,0,0,0,1003.5,1016.9
2023-07-31T03:31:00+09:00,1,�쐼,2,��쐼,24.9,91.6,0,0,0,0,0,0,1003.4,1016.8
2023-07-31T03:32:00+09:00,1,��쐼,2,��쐼,25.2,92.1,0,0,0,0,0,0,1003.4,1016.8
2023-07-31T03:33:00+09:00,1.1,��쐼,2.3,�쐼,24.9,92.1,0,0,0,0,0,0,1003.4,1016.8
2023-07-31T03:34:00+09:00,1.1,��쐼,2.3,�쐼,24.7,91.5,0,0,0,0,0,0,1003.5,1016.9
2023-07-31T03:35:00+09:00,1.2,��쐼,2.3,�쐼,24.7,92.2,0,0,0,0,0,0,1003.5,1016.9
2023-07-31T03:36:00+09:00,1.2,��쐼,2.3,�쐼,24.8,92.7,0,0,0,0,0,0,1003.5,1016.9
2023-07-31T03:37:00+09:00,1.3,��쐼,2.3,�쐼,24.8,93.4,0,0,0,0,0,0,1003.5,1016.9
2023-07-31T03:38:00+09:00,1.4,��쐼,2.3,�쐼,24.7,93.2,0,0,0,0,0,0,1003.5,1016.9
2023-07-31T03:39:00+09:00,1.3,��쐼,2.3,�쐼,24.8,94,0,0,0,0,0,0,1003.5,1016.9
2023-07-31T03:40:00+09:00,1.2,�쐼,2.3,�쐼,24.6,93.3,0,0,0,0,0,0,1003.5,1016.9
2023-07-31T03:41:00+09:00,1.1,�쐼,2.3,�쐼,24.8,93.7,0,0,0,0,0,0,1003.5,1016.9
2023-07-31T03:42:00+09:00,1.1,�쐼,2.3,�쐼,24.6,93.6,0,0,0,0,0,0,1003.6,1017
2023-07-31T03:43:00+09:00,1,�쐼,2,�쐼,24.8,93.9,0,0,0,0,0,0,1003.5,1016.9
2023-07-31T03:44:00+09:00,1,�쐼,2,�쐼,24.7,94.2,0,0,0,0,0,0,1003.5,1016.9
2023-07-31T03:45:00+09:00,1,�쐼,2,�쐼,24.7,93.9,0,0,0,0,0,0,1003.5,1016.9
2023-07-31T03:46:00+09:00,1,�쐼,2,�쐼,24.8,94.3,0,0,0,0,0,0,1003.5,1016.9
2023-07-31T03:47:00+09:00,1,�쐼,2,�쐼,24.5,93.6,0,0,0,0,0,0,1003.5,1016.9
2023-07-31T03:48:00+09:00,1,�쐼,1.9,�쐼,24.7,94,0,0,0,0,0,0,1003.5,1016.9
2023-07-31T03:49:00+09:00,1,�쐼,2.2,��쐼,24.6,93.8,0,0,0,0,0,0,1003.5,1016.9
2023-07-31T03:50:00+09:00,1.1,�쐼,2.2,��쐼,24.7,94,0,0,0,0,0,0,1003.5,1016.9
2023-07-31T03:51:00+09:00,1.2,�쐼,2.2,��쐼,24.6,94.2,0,0,0,0,0,0,1003.5,1016.9
2023-07-31T03:52:00+09:00,1.3,�쐼,2.4,��쐼,24.6,94.2,0,0,0,0,0,0,1003.5,1016.9
2023-07-31T03:53:00+09:00,1.3,��쐼,2.7,��쐼,24.5,94,0,0,0,0,0,0,1003.5,1016.9
2023-07-31T03:54:00+09:00,1.4,��쐼,2.7,��쐼,24.4,93.8,0,0,0,0,0,0,1003.5,1016.9
2023-07-31T03:55:00+09:00,1.4,��쐼,2.7,��쐼,24.6,94.2,0,0,0,0,0,0,1003.5,1016.9
2023-07-31T03:56:00+09:00,1.6,��쐼,2.7,��쐼,24.6,94.6,0,0,0,0,0,0,1003.5,1016.9
2023-07-31T03:57:00+09:00,1.5,��쐼,2.7,��쐼,24.4,94.5,0,0,0,0,0,0,1003.5,1016.9
2023-07-31T03:58:00+09:00,1.5,��쐼,2.7,��쐼,24.6,94.8,0,0,0,0,0,0,1003.5,1016.9
2023-07-31T03:59:00+09:00,1.4,��쐼,2.7,��쐼,24.9,95.2,0,0,0,0,0,0,1003.5,1016.9
2023-07-31T04:00:00+09:00,1.3,�쐼,2.7,��쐼,25.2,95.6,0,0,0,0,0,0,1003.5,1016.9
2023-07-31T04:01:00+09:00,1.2,�쐼,2.7,��쐼,25.5,95.4,0,0,0,0,0,0,1003.5,1016.9
2023-07-31T04:02:00+09:00,1.1,�쐼,2.7,��쐼,25.6,94.8,0,0,0,0,0,0,1003.5,1016.9
2023-07-31T04:03:00+09:00,1,���쐼,2.2,��,25.5,93.5,0,0,0,0,0,0,1003.6,1017
2023-07-31T04:04:00+09:00,0.9,���쐼,2.2,��,25.7,92.6,0,0,0,0,0,0,1003.5,1016.9
2023-07-31T04:05:00+09:00,0.8,��,2.2,��,25.6,91.7,0,0,0,0,0,0,1003.6,1017
2023-07-31T04:06:00+09:00,0.7,��,1.6,��,25.6,90.9,0,0,0,0,0,0,1003.6,1017
2023-07-31T04:07:00+09:00,0.7,��,1.3,��,25.6,90.4,0,0,0,0,0,0,1003.6,1017
2023-07-31T04:08:00+09:00,0.6,��,1.3,��,25.5,89.9,0,0,0,0,0,0,1003.6,1017
2023-07-31T04:09:00+09:00,0.7,��,1.3,��,25.5,89.7,0,0,0,0,0,0,1003.6,1017
2023-07-31T04:10:00+09:00,0.6,��,1.3,��,25.4,89.6,0,0,0,0,0,0,1003.6,1017
2023-07-31T04:11:00+09:00,0.6,��,1.2,���쐼,25.2,89.1,0,0,0,0,0,0,1003.6,1017
2023-07-31T04:12:00+09:00,0.6,��,1.2,���쐼,24.9,89.4,0,0,0,0,0,0,1003.6,1017
2023-07-31T04:13:00+09:00,0.6,���쐼,1.3,�쐼,24.6,89.4,0,0,0,0,0,0,1003.6,1017
2023-07-31T04:14:00+09:00,0.6,���쐼,1.4,�쐼,25,91.1,0,0,0,0,0,0,1003.6,1017
2023-07-31T04:15:00+09:00,0.7,���쐼,1.4,�쐼,24.9,91.9,0,0,0,0,0,0,1003.6,1017
2023-07-31T04:16:00+09:00,0.8,���쐼,1.8,�쐼,24.6,91.3,0,0,0,0,0,0,1003.6,1017
2023-07-31T04:17:00+09:00,0.8,�쐼,1.8,�쐼,24.8,91.9,0,0,0,0,0,0,1003.6,1017
2023-07-31T04:18:00+09:00,0.8,�쐼,1.8,�쐼,25,93,0,0,0,0,0,0,1003.6,1017
2023-07-31T04:19:00+09:00,0.9,�쐼,2.4,�쐼,24.6,92.6,0,0,0,0,0,0,1003.6,1017
2023-07-31T04:20:00+09:00,1.1,�쐼,2.4,�쐼,24.4,92.2,0,0,0,0,0,0,1003.7,1017.1
2023-07-31T04:21:00+09:00,1.1,�쐼,2.4,�쐼,24.3,92.4,0,0,0,0,0,0,1003.7,1017.1
2023-07-31T04:22:00+09:00,1.2,�쐼,2.4,�쐼,24.5,93.6,0,0,0,0,0,0,1003.7,1017.1
2023-07-31T04:23:00+09:00,1.2,�쐼,2.4,�쐼,24.4,93.7,0,0,0,0,0,0,1003.7,1017.1
2023-07-31T04:24:00+09:00,1.2,�쐼,2.4,�쐼,24.2,93.8,0,0,0,0,0,0,1003.7,1017.1
2023-07-31T04:25:00+09:00,1.2,�쐼,2.4,�쐼,24.2,94.1,0,0,0,0,0,0,1003.7,1017.1
2023-07-31T04:26:00+09:00,1.2,�쐼,2.4,�쐼,24.1,94.4,0,0,0,0,0,0,1003.7,1017.1
2023-07-31T04:27:00+09:00,1.2,���쐼,2.4,�쐼,24.1,94.6,0,0,0,0,0,0,1003.7,1017.1
2023-07-31T04:28:00+09:00,1.2,���쐼,2.4,�쐼,24.4,95.3,0,0,0,0,0,0,1003.7,1017.1
2023-07-31T04:29:00+09:00,1.1,���쐼,2.2,�쐼,24.1,95.4,0,0,0,0,0,0,1003.7,1017.1
2023-07-31T04:30:00+09:00,1,���쐼,2.1,�쐼,24.2,95.2,0,0,0,0,0,0,1003.7,1017.1
2023-07-31T04:31:00+09:00,1,���쐼,2.1,�쐼,24.2,95.3,0,0,0,0,0,0,1003.7,1017.1
2023-07-31T04:32:00+09:00,1,���쐼,2.1,�쐼,24.3,95.5,0,0,0,0,0,0,1003.7,1017.1
2023-07-31T04:33:00+09:00,1,���쐼,2.1,�쐼,24.5,95.8,0,0,0,0,0,0,1003.6,1017
2023-07-31T04:34:00+09:00,0.9,���쐼,1.7,�쐼,24.4,95.4,0,0,0,0,0,0,1003.6,1017
2023-07-31T04:35:00+09:00,1,���쐼,1.7,�쐼,24.3,95.3,0,0,0,0,0,0,1003.7,1017.1
2023-07-31T04:36:00+09:00,1,���쐼,1.7,�쐼,24.2,95.1,0,0,0,0,0,0,1003.7,1017.1
2023-07-31T04:37:00+09:00,1,�쐼,1.7,�쐼,24.8,95.5,0,0,0,0,0,0,1003.7,1017.1
2023-07-31T04:38:00+09:00,1,�쐼,1.7,�쐼,24.4,95.3,0,0,0,0,0,0,1003.7,1017.1
2023-07-31T04:39:00+09:00,1.1,�쐼,1.9,�쐼,24.6,95,0,0,0,0,0,0,1003.7,1017.1
2023-07-31T04:40:00+09:00,1.2,�쐼,1.9,�쐼,24.5,94.6,0,0,0,0,0,0,1003.7,1017.1
2023-07-31T04:41:00+09:00,1.2,�쐼,1.9,�쐼,24.5,94.8,0,0,0,0,0,0,1003.7,1017.1
2023-07-31T04:42:00+09:00,1.2,�쐼,1.9,�쐼,24.7,94.7,0,0,0,0,0,0,1003.7,1017.1
2023-07-31T04:43:00+09:00,1.2,�쐼,1.9,�쐼,24.9,94.7,0,0,0,0,0,0,1003.7,1017.1
2023-07-31T04:44:00+09:00,1.1,�쐼,1.9,�쐼,25.1,94.7,0,0,0,0,0,0,1003.7,1017.1
2023-07-31T04:45:00+09:00,1.1,�쐼,1.9,�쐼,25,93.7,0,0,0,0,0,0,1003.7,1017.1
2023-07-31T04:46:00+09:00,1,�쐼,1.9,�쐼,25.1,93.2,0,0,0,0,0,0,1003.7,1017.1
2023-07-31T04:47:00+09:00,1,�쐼,1.9,�쐼,25,92.4,0,0,0,0,0,0,1003.7,1017.1
2023-07-31T04:48:00+09:00,1,�쐼,1.9,�쐼,24.8,91.8,0,0,0,0,0,0,1003.7,1017.1
2023-07-31T04:49:00+09:00,0.9,�쐼,1.8,��쐼,24.5,90.9,0,0,0,0,0,0,1003.7,1017.1
2023-07-31T04:50:00+09:00,0.8,�쐼,1.7,���쐼,24.4,91.2,0,0,0,0,0,0,1003.7,1017.1
2023-07-31T04:51:00+09:00,0.8,�쐼,1.4,�쐼,24.2,91.4,0,0,0,0,0,0,1003.7,1017.1
2023-07-31T04:52:00+09:00,0.8,�쐼,1.6,���쐼,24.1,92,0,0,0,0,0,0,1003.7,1017.1
2023-07-31T04:53:00+09:00,0.8,�쐼,1.8,���쐼,24.1,92.7,0,0,0,0,0,0,1003.7,1017.1
2023-07-31T04:54:00+09:00,0.8,�쐼,1.8,���쐼,24.1,93.3,0,0,0,0,0,0,1003.7,1017.1
2023-07-31T04:55:00+09:00,0.9,�쐼,1.8,���쐼,24.1,94,0,0,0,0,0,0,1003.7,1017.1
2023-07-31T04:56:00+09:00,0.9,�쐼,1.8,���쐼,24.2,94.5,0,0,0,0,0,0,1003.7,1017.1
2023-07-31T04:57:00+09:00,0.9,���쐼,1.8,���쐼,24.1,94.6,0,0,0,0,0,0,1003.7,1017.1
2023-07-31T04:58:00+09:00,0.9,���쐼,1.8,���쐼,24.1,94.8,0,0,0,0,0,0,1003.7,1017.1
2023-07-31T04:59:00+09:00,0.9,���쐼,1.8,���쐼,24.2,95.2,0,0,0,0,0,0,1003.7,1017.1
2023-07-31T05:00:00+09:00,0.9,���쐼,1.8,���쐼,24.1,95.1,0,0,0,0,0,0,1003.7,1017.1
2023-07-31T05:01:00+09:00,0.9,���쐼,1.8,���쐼,24.5,95.4,0,0,0,0,0,0,1003.7,1017.1
2023-07-31T05:02:00+09:00,0.9,�쐼,1.8,���쐼,24.7,95.7,0,0,0,0,0,0,1003.7,1017.1
2023-07-31T05:03:00+09:00,0.8,�쐼,1.8,��쐼,25,95.5,0,0,0,0,0,0,1003.7,1017.1
2023-07-31T05:04:00+09:00,0.7,�쐼,1.8,��쐼,25.3,95.3,0,0,0,0,0,0,1003.7,1017.1
2023-07-31T05:05:00+09:00,0.7,���쐼,1.8,��쐼,25.3,94.4,0,0,0,0,0,0,1003.7,1017.1
2023-07-31T05:06:00+09:00,0.6,���쐼,1.8,��쐼,25.4,93.2,0,0,0,0,0,0,1003.7,1017.1
2023-07-31T05:07:00+09:00,0.5,���쐼,1.8,��쐼,25,91.8,0,0,0,0,0,0,1003.6,1017
2023-07-31T05:08:00+09:00,0.5,���쐼,1.3,�쐼,24.8,90.2,0,0,0,0,0,0,1003.6,1017
2023-07-31T05:09:00+09:00,0.4,���쐼,1.3,�쐼,25.2,91,0,0,0,0,0,0,1003.6,1017
2023-07-31T05:10:00+09:00,0.4,�쐼,1.1,���쐼,25.4,91.3,0,0,0,0,0,0,1003.6,1017
2023-07-31T05:11:00+09:00,0.4,�쐼,1.4,��,25.1,90.4,0,0,0,0,0,0,1003.6,1017